Location: Auckland
(36.8670°S, 174.7670°E)
Time: 14:15:30
(UTC+13:00)

Vanguard 3 - All Passes

Search period start: 15 October 2019 00:00
Search period end: 25 October 2019 00:00
Orbit: 508 x 3262 km, 33.3° (Epoch: 13 October)

Date Brightness Start Highest point End Pass type
(mag) Time Alt. Az. Time Alt. Az. Time Alt. Az.
15 Oct - 09:43:40 10° NNE 09:51:36 14° NE 10:00:00 10° ENE daylight
15 Oct - 11:48:37 10° NNW 12:05:31 42° NE 12:22:11 10° E daylight
15 Oct - 14:01:36 10° WNW 14:21:30 69° NNE 14:37:06 10° E daylight
15 Oct - 16:18:31 10° W 16:37:48 78° N 16:49:56 10° E daylight
15 Oct - 18:36:51 10° W 18:52:11 56° NNW 19:00:59 10° NE daylight
15 Oct - 20:56:22 10° W 21:03:22 19° NW 21:08:26 10° N visible
16 Oct - 10:35:31 10° N 10:49:31 29° NE 11:04:42 10° E daylight
16 Oct - 12:45:48 10° NW 13:04:34 58° NNE 13:21:45 10° E daylight
16 Oct - 15:01:01 10° WNW 15:21:11 78° N 15:35:36 10° E daylight
16 Oct - 17:18:52 10° W 17:36:57 71° NNW 17:47:43 10° ENE daylight
16 Oct - 19:37:32 10° W 19:49:49 36° NW 19:57:23 10° NNE daylight
17 Oct - 09:24:56 10° NNE 09:34:11 17° NE 09:44:28 10° E daylight
17 Oct - 11:31:12 10° NNW 11:47:57 46° NE 12:05:30 10° E daylight
17 Oct - 13:44:17 10° WNW 14:04:08 72° NNE 14:20:42 10° E daylight
17 Oct - 16:01:02 10° W 16:20:49 78° N 16:33:50 10° ENE daylight
17 Oct - 18:19:19 10° W 18:35:25 54° NNW 18:44:57 10° NE daylight
17 Oct - 20:39:35 10° W 20:46:39 17° NW 20:51:56 10° NNW visible
18 Oct - 10:18:00 10° NNW 10:31:58 32° NE 10:48:01 10° E daylight
18 Oct - 12:28:35 10° NW 12:47:03 62° NNE 13:05:06 10° E daylight
18 Oct - 14:43:42 10° WNW 15:03:59 79° N 15:19:20 10° E daylight
18 Oct - 17:01:20 10° W 17:20:02 68° NNW 17:31:40 10° ENE daylight
18 Oct - 19:20:12 10° W 19:33:01 33° NW 19:41:10 10° NNE daylight
19 Oct - 09:06:52 10° NNE 09:16:45 19° NE 09:28:18 10° E daylight
19 Oct - 11:14:02 10° NW 11:30:22 49° NNE 11:48:40 10° E daylight
19 Oct - 13:27:08 10° WNW 13:46:43 75° NNE 14:04:11 10° E daylight
19 Oct - 15:43:38 10° W 16:03:43 77° N 16:17:39 10° ENE daylight
19 Oct - 18:01:48 10° W 18:18:30 51° NNW 18:28:49 10° NE daylight
19 Oct - 20:22:53 10° W 20:29:48 16° NW 20:35:11 10° NNW visible
20 Oct - 10:00:46 10° NNW 10:14:25 35° NE 10:31:08 10° E daylight
20 Oct - 12:11:33 10° NW 12:29:31 66° NNE 12:48:20 10° E daylight
20 Oct - 14:26:29 10° W 14:46:41 80° N 15:02:57 10° E daylight
20 Oct - 16:43:50 10° W 17:03:00 66° NNW 17:15:30 10° ENE daylight
20 Oct - 19:02:52 10° W 19:16:05 31° NW 19:24:49 10° NNE daylight
21 Oct - 08:49:15 10° N 08:59:20 22° NE 09:11:45 10° E daylight
21 Oct - 10:57:04 10° NW 11:12:48 53° NNE 11:31:41 10° E daylight
21 Oct - 13:10:08 10° WNW 13:29:17 77° N 13:47:33 10° E daylight
21 Oct - 15:26:19 10° W 15:46:31 76° NNW 16:01:22 10° ENE daylight
21 Oct - 17:44:18 10° W 18:01:27 48° NW 18:12:32 10° NE daylight
21 Oct - 20:06:19 10° W 20:12:52 15° NW 20:18:09 10° NNW visible
22 Oct - 09:43:46 10° NNW 09:56:56 39° NE 10:14:03 10° E daylight
22 Oct - 11:54:43 10° WNW 12:12:00 69° NNE 12:31:25 10° E daylight
22 Oct - 14:09:24 10° W 14:29:20 80° N 14:46:29 10° E daylight
22 Oct - 16:26:24 10° W 16:45:49 63° NNW 16:59:12 10° NE daylight
22 Oct - 18:45:34 10° W 18:59:00 29° NW 19:08:17 10° N daylight
23 Oct - 08:32:01 10° N 08:41:58 24° NE 08:54:55 10° E daylight
23 Oct - 10:40:18 10° NW 10:55:18 56° NNE 11:14:33 10° E daylight
23 Oct - 12:53:16 10° WNW 13:11:51 78° N 13:30:48 10° E daylight
23 Oct - 15:09:06 10° W 15:29:13 74° NNW 15:44:58 10° ENE daylight
23 Oct - 17:26:52 10° W 17:44:16 45° NW 17:56:08 10° NNE daylight
23 Oct - 19:50:03 10° WNW 19:55:50 13° NW 20:00:43 10° NNW daylight
24 Oct - 07:24:42 10° NE 07:27:48 11° NE 07:31:12 10° ENE daylight
24 Oct - 09:26:59 10° NNW 09:39:30 42° NE 09:56:48 10° E daylight
24 Oct - 11:38:01 10° WNW 11:54:33 71° NNE 12:14:24 10° E daylight
24 Oct - 13:52:26 10° W 14:11:56 79° N 14:29:52 10° ENE daylight
24 Oct - 16:09:03 10° W 16:28:31 60° NNW 16:42:46 10° NE daylight
24 Oct - 18:28:22 10° W 18:41:49 27° NW 18:51:35 10° N daylight
